TAM3566 SBPV-SBCY

Flight info

Callsign TAM3566
Flight time 1h 36m
Altitude 39000
Route DIKAL UL655 ANRIR
Aircraft A20N/M-SDE2E3FGHIRWXY/LB1

Departure

Time 2026-05-05 01:50
Airport Governador Jorge Teixeira de Oliveira International Airport (SBPV)

Arrival

Time 2026-05-05 03:26
Airport Várzea Grande–Marechal Rondon International Airport (SBCY)
Time Latitude Longitude Altitude Speed Heading
2026-05-05 01:17 -8.71420 -63.89930 321 ft 0 kts 86°
2026-05-05 01:36 -8.71420 -63.89937 301 ft 2 kts 86°
2026-05-05 01:37 -8.71420 -63.89943 301 ft 0 kts 86°
2026-05-05 01:37 -8.71421 -63.89947 300 ft 0 kts 86°
2026-05-05 01:37 -8.71421 -63.89958 299 ft 2 kts 86°
2026-05-05 01:37 -8.71422 -63.89973 300 ft 2 kts 86°
2026-05-05 01:38 -8.71423 -63.89988 299 ft 2 kts 86°
2026-05-05 01:38 -8.71424 -63.90003 299 ft 2 kts 86°
2026-05-05 01:38 -8.71425 -63.90018 299 ft 2 kts 86°
2026-05-05 01:38 -8.71426 -63.90033 299 ft 2 kts 96°
2026-05-05 01:39 -8.71422 -63.90048 299 ft 2 kts 129°
2026-05-05 01:39 -8.71410 -63.90056 301 ft 2 kts 171°
2026-05-05 01:39 -8.71396 -63.90058 299 ft 0 kts 175°
2026-05-05 01:46 -8.71412 -63.90057 301 ft 5 kts 176°
2026-05-05 01:46 -8.71471 -63.90053 300 ft 11 kts 176°
2026-05-05 01:46 -8.71568 -63.90046 303 ft 16 kts 176°
2026-05-05 01:46 -8.71696 -63.90038 301 ft 19 kts 177°
2026-05-05 01:47 -8.71808 -63.90033 300 ft 18 kts 178°
2026-05-05 01:47 -8.71928 -63.90080 300 ft 16 kts 220°
2026-05-05 01:47 -8.71996 -63.90145 301 ft 9 kts 233°
2026-05-05 01:47 -8.71986 -63.90170 299 ft 4 kts 341°
2026-05-05 01:48 -8.71965 -63.90169 300 ft 0 kts 356°
2026-05-05 01:49 -8.71961 -63.90169 299 ft 3 kts 356°
2026-05-05 01:49 -8.71767 -63.90180 299 ft 70 kts 357°
2026-05-05 01:49 -8.71016 -63.90224 300 ft 141 kts 357°
2026-05-05 01:49 -8.69938 -63.90304 732 ft 158 kts 358°
2026-05-05 01:50 -8.68880 -63.90371 1595 ft 147 kts 358°
2026-05-05 01:50 -8.67880 -63.90424 2337 ft 150 kts 358°
2026-05-05 01:50 -8.66774 -63.90482 2824 ft 168 kts 359°
2026-05-05 01:50 -8.65519 -63.90551 3312 ft 188 kts 358°
2026-05-05 01:51 -8.64139 -63.90613 3757 ft 217 kts
2026-05-05 01:51 -8.62646 -63.90073 4511 ft 239 kts 37°
2026-05-05 01:51 -8.61571 -63.88751 5341 ft 260 kts 66°
2026-05-05 01:51 -8.61243 -63.86937 6441 ft 266 kts 95°
2026-05-05 01:52 -8.61823 -63.85198 7821 ft 260 kts 123°
2026-05-05 01:52 -8.63125 -63.83947 9147 ft 263 kts 149°
2026-05-05 01:52 -8.64894 -63.83409 10200 ft 272 kts 174°
2026-05-05 01:52 -8.66807 -63.83335 11222 ft 278 kts 176°
2026-05-05 01:53 -8.68747 -63.83118 12258 ft 282 kts 168°
2026-05-05 01:53 -8.70673 -63.82626 13257 ft 288 kts 161°
2026-05-05 01:53 -8.72589 -63.81921 14039 ft 303 kts 156°
2026-05-05 01:53 -8.74602 -63.81053 14417 ft 327 kts 154°
2026-05-05 01:54 -8.76747 -63.80069 14734 ft 351 kts 154°
2026-05-05 01:54 -8.79032 -63.79010 15094 ft 369 kts 154°
2026-05-05 01:54 -8.81383 -63.77929 15896 ft 372 kts 154°
2026-05-05 01:54 -8.83749 -63.76849 16740 ft 375 kts 154°
2026-05-05 01:55 -8.86114 -63.75723 17524 ft 377 kts 149°
2026-05-05 01:55 -8.88341 -63.74324 18292 ft 378 kts 143°
2026-05-05 01:55 -8.90511 -63.72797 18918 ft 382 kts 143°
2026-05-05 01:55 -8.92716 -63.71257 19502 ft 387 kts 143°
2026-05-05 01:56 -8.94948 -63.69703 20101 ft 391 kts 143°
2026-05-05 01:56 -8.97201 -63.68136 20695 ft 396 kts 143°
2026-05-05 01:56 -8.99485 -63.66547 21270 ft 400 kts 143°
2026-05-05 01:56 -9.01791 -63.64943 21847 ft 405 kts 144°
2026-05-05 01:57 -9.03348 -63.63831 22230 ft 407 kts 142°
2026-05-05 01:57 -9.05599 -63.62136 22786 ft 411 kts 141°
2026-05-05 01:57 -9.07888 -63.60377 23335 ft 415 kts 141°
2026-05-05 01:57 -9.10199 -63.58603 23828 ft 419 kts 141°
2026-05-05 01:58 -9.12536 -63.56819 24309 ft 422 kts 141°
2026-05-05 01:58 -9.14893 -63.55029 24780 ft 425 kts 142°
2026-05-05 01:58 -9.17270 -63.53228 25234 ft 428 kts 142°
2026-05-05 01:58 -9.19666 -63.51415 25689 ft 432 kts 142°
2026-05-05 01:59 -9.22077 -63.49591 26123 ft 435 kts 142°
2026-05-05 01:59 -9.24511 -63.47749 26557 ft 438 kts 142°
2026-05-05 01:59 -9.26958 -63.45897 26977 ft 441 kts 142°
2026-05-05 01:59 -9.29422 -63.44033 27396 ft 444 kts 142°
2026-05-05 02:00 -9.31906 -63.42152 27797 ft 447 kts 142°
2026-05-05 02:00 -9.34405 -63.40260 28187 ft 450 kts 142°
2026-05-05 02:00 -9.36918 -63.38356 28581 ft 453 kts 142°
2026-05-05 02:00 -9.39448 -63.36437 28961 ft 456 kts 142°
2026-05-05 02:01 -9.41865 -63.34348 29321 ft 458 kts 136°
2026-05-05 02:01 -9.44190 -63.32132 29681 ft 461 kts 136°
2026-05-05 02:01 -9.46541 -63.29904 30051 ft 464 kts 136°
2026-05-05 02:01 -9.48905 -63.27666 30364 ft 467 kts 136°
2026-05-05 02:02 -9.51284 -63.25416 30683 ft 470 kts 136°
2026-05-05 02:02 -9.53679 -63.23151 31000 ft 472 kts 136°
2026-05-05 02:02 -9.56085 -63.20874 31387 ft 473 kts 136°
2026-05-05 02:02 -9.58494 -63.18594 31810 ft 474 kts 136°
2026-05-05 02:03 -9.60898 -63.16316 32225 ft 474 kts 136°
2026-05-05 02:03 -9.63306 -63.14035 32654 ft 474 kts 137°
2026-05-05 02:03 -9.65715 -63.11752 33095 ft 473 kts 137°
2026-05-05 02:03 -9.68116 -63.09476 33540 ft 473 kts 137°
2026-05-05 02:04 -9.70485 -63.07231 33967 ft 472 kts 137°
2026-05-05 02:04 -9.72882 -63.04959 34351 ft 471 kts 137°
2026-05-05 02:04 -9.75270 -63.02694 34758 ft 470 kts 137°
2026-05-05 02:04 -9.77655 -63.00432 35158 ft 468 kts 137°
2026-05-05 02:05 -9.80030 -62.98178 35544 ft 467 kts 137°
2026-05-05 02:05 -9.82397 -62.95933 35945 ft 466 kts 137°
2026-05-05 02:05 -9.84763 -62.93688 36363 ft 465 kts 137°
2026-05-05 02:05 -9.87117 -62.91454 36804 ft 464 kts 137°
2026-05-05 02:06 -9.89469 -62.89221 37269 ft 462 kts 137°
2026-05-05 02:06 -9.91813 -62.86995 37703 ft 461 kts 137°
2026-05-05 02:06 -9.94153 -62.84772 38130 ft 460 kts 137°
2026-05-05 02:06 -9.96489 -62.82553 38527 ft 459 kts 137°
2026-05-05 02:07 -9.98817 -62.80341 38849 ft 459 kts 137°
2026-05-05 02:07 -10.01141 -62.78132 38967 ft 457 kts 137°
2026-05-05 02:07 -10.05771 -62.73730 39002 ft 456 kts 137°
2026-05-05 02:08 -10.10411 -62.69318 39005 ft 459 kts 137°
2026-05-05 02:08 -10.15135 -62.64823 39006 ft 470 kts 137°
2026-05-05 02:09 -10.19899 -62.60287 39005 ft 469 kts 137°
2026-05-05 02:09 -10.24672 -62.55742 39001 ft 471 kts 137°
2026-05-05 02:10 -10.29447 -62.51189 39001 ft 471 kts 137°
2026-05-05 02:10 -10.34231 -62.46625 39002 ft 472 kts 137°
2026-05-05 02:11 -10.39023 -62.42052 39008 ft 473 kts 137°
2026-05-05 02:11 -10.43824 -62.37469 39008 ft 474 kts 137°
2026-05-05 02:12 -10.51066 -62.30632 39013 ft 473 kts 139°
2026-05-05 02:13 -10.55889 -62.26077 39002 ft 473 kts 139°
2026-05-05 02:13 -10.60680 -62.21490 39002 ft 473 kts 138°
2026-05-05 02:14 -10.65465 -62.16893 38999 ft 473 kts 139°
2026-05-05 02:14 -10.70261 -62.12318 39002 ft 473 kts 139°
2026-05-05 02:15 -10.75044 -62.07737 38996 ft 472 kts 139°
2026-05-05 02:15 -10.79782 -62.03183 38999 ft 472 kts 138°
2026-05-05 02:16 -10.84547 -61.98601 39002 ft 471 kts 138°
2026-05-05 02:16 -10.89274 -61.93988 38997 ft 471 kts 135°
2026-05-05 02:17 -10.93786 -61.89157 38995 ft 471 kts 135°
2026-05-05 02:17 -10.98304 -61.84341 38992 ft 470 kts 135°
2026-05-05 02:18 -11.02817 -61.79526 38991 ft 470 kts 135°
2026-05-05 02:18 -11.07331 -61.74708 38995 ft 470 kts 135°
2026-05-05 02:19 -11.11845 -61.69888 38990 ft 470 kts 135°
2026-05-05 02:19 -11.16361 -61.65064 38989 ft 470 kts 135°
2026-05-05 02:20 -11.20874 -61.60242 38990 ft 470 kts 135°
2026-05-05 02:20 -11.25388 -61.55417 38989 ft 471 kts 135°
2026-05-05 02:21 -11.29909 -61.50583 38990 ft 471 kts 135°
2026-05-05 02:21 -11.34425 -61.45752 38990 ft 471 kts 135°
2026-05-05 02:22 -11.39006 -61.40975 38988 ft 471 kts 137°
2026-05-05 02:22 -11.43676 -61.36349 38995 ft 471 kts 137°
2026-05-05 02:23 -11.48360 -61.31684 38990 ft 471 kts 137°
2026-05-05 02:23 -11.53035 -61.26998 38994 ft 471 kts 137°
2026-05-05 02:24 -11.57704 -61.22310 38992 ft 471 kts 137°
2026-05-05 02:24 -11.62377 -61.17617 38993 ft 471 kts 137°
2026-05-05 02:25 -11.67045 -61.12927 38993 ft 471 kts 137°
2026-05-05 02:25 -11.71709 -61.08239 38997 ft 471 kts 137°
2026-05-05 02:26 -11.76367 -61.03554 38992 ft 470 kts 137°
2026-05-05 02:26 -11.81030 -60.98863 38997 ft 470 kts 137°
2026-05-05 02:27 -11.85687 -60.94175 38999 ft 470 kts 137°
2026-05-05 02:27 -11.90340 -60.89490 38994 ft 469 kts 137°
2026-05-05 02:28 -11.94987 -60.84808 38993 ft 469 kts 137°
2026-05-05 02:28 -11.99632 -60.80125 38997 ft 469 kts 137°
2026-05-05 02:29 -12.04278 -60.75439 38995 ft 469 kts 137°
2026-05-05 02:29 -12.08920 -60.70754 38999 ft 469 kts 137°
2026-05-05 02:30 -12.13565 -60.66065 38996 ft 469 kts 137°
2026-05-05 02:30 -12.18205 -60.61377 39004 ft 469 kts 137°
2026-05-05 02:31 -12.22847 -60.56686 39004 ft 469 kts 137°
2026-05-05 02:31 -12.27487 -60.51993 39004 ft 469 kts 137°
2026-05-05 02:32 -12.32126 -60.47300 39005 ft 469 kts 137°
2026-05-05 02:32 -12.36765 -60.42602 39011 ft 469 kts 137°
2026-05-05 02:33 -12.41401 -60.37906 39013 ft 469 kts 137°
2026-05-05 02:33 -12.46039 -60.33204 39014 ft 469 kts 137°
2026-05-05 02:34 -12.50677 -60.28500 39019 ft 470 kts 137°
2026-05-05 02:34 -12.55318 -60.23791 39021 ft 470 kts 137°
2026-05-05 02:35 -12.59955 -60.19084 39018 ft 470 kts 137°
2026-05-05 02:35 -12.64566 -60.14399 39024 ft 470 kts 137°
2026-05-05 02:36 -12.69209 -60.09681 39018 ft 470 kts 137°
2026-05-05 02:36 -12.73743 -60.04843 39017 ft 471 kts 135°
2026-05-05 02:37 -12.78199 -59.99924 39019 ft 471 kts 135°
2026-05-05 02:37 -12.82677 -59.95021 39020 ft 471 kts 135°
2026-05-05 02:38 -12.87167 -59.90123 39019 ft 471 kts 135°
2026-05-05 02:38 -12.91657 -59.85224 39018 ft 471 kts 135°
2026-05-05 02:39 -12.96146 -59.80324 39027 ft 472 kts 135°
2026-05-05 02:39 -13.00636 -59.75420 39024 ft 471 kts 135°
2026-05-05 02:40 -13.05125 -59.70513 39023 ft 472 kts 135°
2026-05-05 02:40 -13.09612 -59.65606 39024 ft 472 kts 135°
2026-05-05 02:41 -13.14097 -59.60698 39026 ft 472 kts 135°
2026-05-05 02:41 -13.18584 -59.55786 39032 ft 472 kts 135°
2026-05-05 02:42 -13.23068 -59.50875 39028 ft 471 kts 135°
2026-05-05 02:42 -13.27553 -59.45959 39027 ft 472 kts 135°
2026-05-05 02:43 -13.32034 -59.41044 39027 ft 471 kts 135°
2026-05-05 02:43 -13.35758 -59.36957 39015 ft 472 kts 135°
2026-05-05 02:44 -13.40238 -59.32039 39030 ft 471 kts 135°
2026-05-05 02:44 -13.44717 -59.27118 39030 ft 471 kts 135°
2026-05-05 02:45 -13.49922 -59.21397 39027 ft 471 kts 135°
2026-05-05 02:45 -13.53672 -59.17272 39031 ft 471 kts 135°
2026-05-05 02:46 -13.58145 -59.12350 39036 ft 471 kts 135°
2026-05-05 02:46 -13.62620 -59.07422 39031 ft 471 kts 135°
2026-05-05 02:47 -13.67094 -59.02492 39030 ft 471 kts 135°
2026-05-05 02:47 -13.71568 -58.97561 39030 ft 472 kts 135°
2026-05-05 02:48 -13.76039 -58.92629 39034 ft 472 kts 135°
2026-05-05 02:48 -13.80514 -58.87693 39034 ft 472 kts 135°
2026-05-05 02:49 -13.84988 -58.82758 39033 ft 472 kts 135°
2026-05-05 02:49 -13.89464 -58.77819 39034 ft 472 kts 135°
2026-05-05 02:50 -13.93942 -58.72874 39034 ft 472 kts 135°
2026-05-05 02:50 -13.98418 -58.67928 39028 ft 472 kts 135°
2026-05-05 02:51 -14.02860 -58.63012 39032 ft 472 kts 135°
2026-05-05 02:51 -14.07336 -58.58053 39039 ft 472 kts 135°
2026-05-05 02:52 -14.11808 -58.53096 39040 ft 473 kts 135°
2026-05-05 02:52 -14.16284 -58.48131 39038 ft 473 kts 135°
2026-05-05 02:53 -14.20762 -58.43162 39042 ft 473 kts 135°
2026-05-05 02:53 -14.25235 -58.38194 39046 ft 473 kts 135°
2026-05-05 02:54 -14.29713 -58.33218 39045 ft 473 kts 135°
2026-05-05 02:54 -14.34186 -58.28245 39042 ft 473 kts 135°
2026-05-05 02:55 -14.38665 -58.23262 39042 ft 473 kts 135°
2026-05-05 02:55 -14.43137 -58.18283 39034 ft 473 kts 135°
2026-05-05 02:56 -14.47613 -58.13297 39032 ft 473 kts 135°
2026-05-05 02:56 -14.52090 -58.08307 39035 ft 474 kts 135°
2026-05-05 02:57 -14.56564 -58.03317 39031 ft 474 kts 135°
2026-05-05 02:57 -14.61036 -57.98325 39031 ft 474 kts 135°
2026-05-05 02:58 -14.65510 -57.93329 39023 ft 474 kts 135°
2026-05-05 02:58 -14.69979 -57.88335 39018 ft 473 kts 135°
2026-05-05 02:59 -14.74447 -57.83338 39012 ft 473 kts 135°
2026-05-05 02:59 -14.78915 -57.78338 39008 ft 473 kts 135°
2026-05-05 03:00 -14.83381 -57.73337 39005 ft 473 kts 135°
2026-05-05 03:00 -14.87846 -57.68335 39005 ft 473 kts 135°
2026-05-05 03:01 -14.92310 -57.63330 38996 ft 473 kts 135°
2026-05-05 03:01 -14.96739 -57.58360 38995 ft 473 kts 135°
2026-05-05 03:02 -15.00789 -57.52982 38973 ft 476 kts 125°
2026-05-05 03:02 -15.02552 -57.50077 38780 ft 477 kts 124°
2026-05-05 03:02 -15.04315 -57.47177 38649 ft 476 kts 124°
2026-05-05 03:03 -15.07849 -57.41385 38531 ft 477 kts 124°
2026-05-05 03:03 -15.09614 -57.38490 38187 ft 474 kts 124°
2026-05-05 03:03 -15.11366 -57.35612 37566 ft 472 kts 124°
2026-05-05 03:03 -15.13116 -57.32737 36755 ft 473 kts 124°
2026-05-05 03:04 -15.14872 -57.29851 35882 ft 475 kts 124°
2026-05-05 03:04 -15.16635 -57.26953 35015 ft 477 kts 124°
2026-05-05 03:04 -15.18392 -57.24062 34520 ft 470 kts 124°
2026-05-05 03:04 -15.20103 -57.21242 34358 ft 454 kts 124°
2026-05-05 03:05 -15.21753 -57.18520 34244 ft 439 kts 124°
2026-05-05 03:05 -15.23345 -57.15895 33897 ft 424 kts 124°
2026-05-05 03:05 -15.24899 -57.13334 33169 ft 417 kts 124°
2026-05-05 03:05 -15.26436 -57.10802 32427 ft 412 kts 124°
2026-05-05 03:06 -15.27951 -57.08305 31719 ft 407 kts 125°
2026-05-05 03:06 -15.29446 -57.05839 31036 ft 402 kts 125°
2026-05-05 03:06 -15.30923 -57.03401 30380 ft 397 kts 125°
2026-05-05 03:06 -15.32378 -57.00999 29666 ft 392 kts 125°
2026-05-05 03:07 -15.33818 -56.98626 28927 ft 386 kts 125°
2026-05-05 03:07 -15.35237 -56.96287 28218 ft 381 kts 124°
2026-05-05 03:07 -15.36636 -56.93979 27521 ft 376 kts 124°
2026-05-05 03:07 -15.38015 -56.91703 26846 ft 371 kts 124°
2026-05-05 03:08 -15.39378 -56.89455 26188 ft 366 kts 123°
2026-05-05 03:08 -15.40723 -56.87237 25543 ft 361 kts 123°
2026-05-05 03:08 -15.42051 -56.85046 24916 ft 357 kts 122°
2026-05-05 03:08 -15.43363 -56.82880 24314 ft 353 kts 122°
2026-05-05 03:09 -15.44658 -56.80741 23735 ft 348 kts 122°
2026-05-05 03:09 -15.45943 -56.78617 22849 ft 349 kts 121°
2026-05-05 03:09 -15.47242 -56.76468 21851 ft 354 kts 121°
2026-05-05 03:09 -15.48550 -56.74300 21110 ft 351 kts 121°
2026-05-05 03:10 -15.49813 -56.72209 20836 ft 337 kts 121°
2026-05-05 03:10 -15.51047 -56.70164 20458 ft 333 kts 121°
2026-05-05 03:10 -15.52269 -56.68138 20024 ft 331 kts 121°
2026-05-05 03:10 -15.53517 -56.66138 19593 ft 329 kts 121°
2026-05-05 03:11 -15.54817 -56.64187 19175 ft 328 kts 124°
2026-05-05 03:11 -15.56128 -56.62296 18764 ft 326 kts 124°
2026-05-05 03:11 -15.57391 -56.60382 18437 ft 314 kts 122°
2026-05-05 03:11 -15.58547 -56.58539 18212 ft 298 kts 121°
2026-05-05 03:12 -15.59643 -56.56727 17786 ft 296 kts 120°
2026-05-05 03:12 -15.60718 -56.54916 17415 ft 293 kts 120°
2026-05-05 03:12 -15.61777 -56.53118 17073 ft 291 kts 120°
2026-05-05 03:12 -15.62824 -56.51339 16712 ft 289 kts 120°
2026-05-05 03:13 -15.63871 -56.49561 16373 ft 284 kts 120°
2026-05-05 03:13 -15.64875 -56.47859 16245 ft 269 kts 120°
2026-05-05 03:13 -15.65828 -56.46245 16064 ft 255 kts 120°
2026-05-05 03:13 -15.66722 -56.44729 15626 ft 242 kts 120°
2026-05-05 03:14 -15.67597 -56.43244 15013 ft 240 kts 120°
2026-05-05 03:14 -15.68463 -56.41771 14426 ft 238 kts 120°
2026-05-05 03:14 -15.69322 -56.40313 13859 ft 236 kts 120°
2026-05-05 03:14 -15.70172 -56.38871 13224 ft 234 kts 120°
2026-05-05 03:15 -15.71020 -56.37433 12574 ft 233 kts 120°
2026-05-05 03:15 -15.71862 -56.36005 11957 ft 232 kts 120°
2026-05-05 03:15 -15.72703 -56.34579 11355 ft 231 kts 119°
2026-05-05 03:15 -15.73540 -56.33161 10775 ft 230 kts 119°
2026-05-05 03:16 -15.74374 -56.31746 10216 ft 229 kts 118°
2026-05-05 03:16 -15.75205 -56.30338 9642 ft 228 kts 118°
2026-05-05 03:16 -15.76029 -56.28939 9027 ft 227 kts 118°
2026-05-05 03:16 -15.76861 -56.27525 8338 ft 229 kts 118°
2026-05-05 03:17 -15.77676 -56.26145 7905 ft 220 kts 118°
2026-05-05 03:17 -15.78467 -56.24803 7404 ft 216 kts 117°
2026-05-05 03:17 -15.79247 -56.23477 6895 ft 214 kts 117°
2026-05-05 03:17 -15.80019 -56.22165 6412 ft 212 kts 117°
2026-05-05 03:18 -15.80782 -56.20865 5888 ft 211 kts 117°
2026-05-05 03:18 -15.81536 -56.19580 5495 ft 207 kts 117°
2026-05-05 03:18 -15.82293 -56.18290 5260 ft 205 kts 117°
2026-05-05 03:18 -15.83008 -56.17080 5120 ft 189 kts 117°
2026-05-05 03:19 -15.84354 -56.14785 4438 ft 186 kts 117°
2026-05-05 03:19 -15.85019 -56.13639 4127 ft 183 kts 116°
2026-05-05 03:19 -15.85355 -56.12409 3922 ft 183 kts 88°
2026-05-05 03:20 -15.85050 -56.11147 3696 ft 177 kts 60°
2026-05-05 03:20 -15.84470 -56.10031 3490 ft 178 kts 60°
2026-05-05 03:20 -15.83892 -56.08892 3278 ft 172 kts 61°
2026-05-05 03:20 -15.83361 -56.07830 3071 ft 167 kts 61°
2026-05-05 03:21 -15.82822 -56.06746 2842 ft 169 kts 61°
2026-05-05 03:21 -15.82284 -56.05665 2646 ft 169 kts 62°
2026-05-05 03:21 -15.81710 -56.04611 2446 ft 167 kts 52°
2026-05-05 03:21 -15.80780 -56.03926 2416 ft 168 kts 16°
2026-05-05 03:22 -15.79640 -56.04035 2419 ft 169 kts 338°
2026-05-05 03:22 -15.78577 -56.04554 2349 ft 168 kts 333°
2026-05-05 03:22 -15.77536 -56.05120 2245 ft 168 kts 332°
2026-05-05 03:22 -15.76569 -56.05656 2193 ft 147 kts 332°
2026-05-05 03:23 -15.75683 -56.06142 2200 ft 143 kts 332°
2026-05-05 03:23 -15.74803 -56.06617 2201 ft 142 kts 333°
2026-05-05 03:23 -15.73921 -56.07089 2201 ft 142 kts 333°
2026-05-05 03:23 -15.73074 -56.07539 2199 ft 132 kts 333°
2026-05-05 03:24 -15.72254 -56.07974 2193 ft 132 kts 333°
2026-05-05 03:24 -15.71431 -56.08410 2013 ft 133 kts 333°
2026-05-05 03:24 -15.70596 -56.08852 1591 ft 138 kts 333°
2026-05-05 03:24 -15.69724 -56.09314 1207 ft 139 kts 333°
2026-05-05 03:25 -15.68896 -56.09753 976 ft 129 kts 333°
2026-05-05 03:25 -15.68083 -56.10186 890 ft 135 kts 332°
2026-05-05 03:25 -15.67267 -56.10623 845 ft 130 kts 332°
2026-05-05 03:25 -15.66483 -56.11041 712 ft 121 kts 333°
2026-05-05 03:26 -15.65760 -56.11421 598 ft 110 kts 333°
2026-05-05 03:26 -15.65298 -56.11668 598 ft 31 kts 332°
2026-05-05 03:26 -15.65197 -56.11722 597 ft 22 kts 333°
2026-05-05 03:26 -15.65138 -56.11753 597 ft 12 kts 333°
2026-05-05 03:27 -15.65070 -56.11789 597 ft 0 kts 327°
2026-05-05 03:27 -15.65062 -56.11828 597 ft 12 kts 269°
2026-05-05 03:27 -15.65085 -56.11872 597 ft 2 kts 244°
2026-05-05 03:27 -15.65086 -56.11906 597 ft 8 kts 295°
2026-05-05 03:28 -15.65024 -56.11946 596 ft 14 kts 332°
2026-05-05 03:28 -15.64981 -56.11966 596 ft 4 kts 335°
2026-05-05 03:28 -15.64960 -56.11989 596 ft 3 kts 268°
2026-05-05 03:28 -15.64970 -56.12013 596 ft 1 kts 244°
2026-05-05 03:29 -15.64975 -56.12024 596 ft 0 kts 243°
2026-05-05 03:29 -15.64976 -56.12025 596 ft 0 kts 243°